User: anonymous
Location: Albany
(35.0000°S, 118.0000°E)
Time: 07:13:19
(UTC-04:00)
Language:

TRMM - Orbit

View from above orbital plane
View from above orbital plane
View from above satellite
View from above satellite

Ground track
Ground track

The orbit data is extracted from the following two-line orbital elements,

1 25063U 97074A   14109.55379897  .00038055  00000-0  52967-3 0  6216
2 25063 034.9552 168.1451 0001006 263.0031 240.3905 15.55894618935556
Epoch (UTC): 19 April 2014 13:17:28
Eccentricity: 0.0001006
inclination: 34.9552°
perigee height: 399 km
apogee height: 400 km
right ascension of ascending node: 168.1451°
argument of perigee: 263.0031°
revolutions per day: 15.55894618
mean anomaly at epoch: 240.3905°
orbit number at epoch: 93555

The dashed part of the orbit path shows where the satellite is in the earth's shadow,  

DLR